| time (UTC) | temp F | wind direction | speed MPH | gust MPH | rain 1hr in | rain 24hr in | rain mn in | humidity % | barometer mb |
| 20260507155713 | 57 | 329 | 6.0 | 16.0 | 0.00 | 0.00 | 0.00 | 46 | 1017.2 |
| 20260507155231 | 57 | 326 | 3.0 | 7.0 | 0.00 | 0.00 | 0.00 | 56 | 1017.2 |
| 20260507154744 | 56 | 304 | 3.0 | 13.0 | 0.00 | 0.00 | 0.00 | 52 | 1017.1 |
| 20260507154216 | 55 | 330 | 4.0 | 17.0 | 0.00 | 0.00 | 0.00 | 53 | 1017.1 |
| 20260507153729 | 55 | 345 | 8.0 | 17.0 | 0.00 | 0.00 | 0.00 | 52 | 1017.2 |
| 20260507153242 | 56 | 264 | 3.0 | 9.0 | 0.00 | 0.00 | 0.00 | 51 | 1017.2 |
| 20260507152715 | 56 | 329 | 2.0 | 9.0 | 0.00 | 0.00 | 0.00 | 53 | 1017.1 |
| 20260507152229 | 56 | 350 | 2.0 | 7.0 | 0.00 | 0.00 | 0.00 | 57 | 1017.1 |
| 20260507151722 | 55 | 329 | 2.0 | 7.0 | 0.00 | 0.00 | 0.00 | 53 | 1017.1 |
| 20260507151215 | 55 | 267 | 3.0 | 7.0 | 0.00 | 0.00 | 0.00 | 53 | 1017.2 |
| 20260507150732 | 54 | 256 | 2.0 | 8.0 | 0.00 | 0.00 | 0.00 | 56 | 1017.2 |
| 20260507150225 | 55 | 305 | 3.0 | 11.0 | 0.00 | 0.00 | 0.00 | 57 | 1017.2 |
| 20260507145731 | 54 | 343 | 4.0 | 11.0 | 0.00 | 0.00 | 0.00 | 53 | 1017.2 |
| 20260507145223 | 54 | 29 | 3.0 | 8.0 | 0.00 | 0.00 | 0.00 | 55 | 1017.2 |
| 20260507144716 | 54 | 335 | 5.0 | 11.0 | 0.00 | 0.00 | 0.00 | 55 | 1017.2 |
| 20260507144229 | 54 | 354 | 3.0 | 13.0 | 0.00 | 0.00 | 0.00 | 53 | 1017.1 |
| 20260507143721 | 54 | 328 | 6.0 | 13.0 | 0.00 | 0.00 | 0.00 | 56 | 1017.1 |
| 20260507143235 | 54 | 262 | 3.0 | 9.0 | 0.00 | 0.00 | 0.00 | 59 | 1017.1 |
| 20260507142728 | 53 | 11 | 4.0 | 10.0 | 0.00 | 0.00 | 0.00 | 57 | 1017.1 |
| 20260507142225 | 53 | 328 | 6.0 | 14.0 | 0.00 | 0.00 | 0.00 | 58 | 1017.2 |
| 20260507141737 | 53 | 292 | 4.0 | 14.0 | 0.00 | 0.00 | 0.00 | 58 | 1017.2 |
| 20260507141229 | 52 | 360 | 4.0 | 11.0 | 0.00 | 0.00 | 0.00 | 56 | 1017.1 |
| 20260507140721 | 52 | 335 | 5.0 | 11.0 | 0.00 | 0.00 | 0.00 | 56 | 1017.1 |
| 20260507140214 | 52 | 347 | 6.0 | 10.0 | 0.00 | 0.00 | 0.00 | 59 | 1017.1 |
| 20260507135720 | 52 | 25 | 7.0 | 13.0 | 0.00 | 0.00 | 0.00 | 57 | 1017.2 |
| 20260507135214 | 52 | 4 | 8.0 | 12.0 | 0.00 | 0.00 | 0.00 | 59 | 1017.1 |
| 20260507134746 | 52 | 322 | 4.0 | 7.0 | 0.00 | 0.00 | 0.00 | 60 | 1017.1 |
| 20260507134219 | 52 | 357 | 3.0 | 6.0 | 0.00 | 0.00 | 0.00 | 63 | 1017.1 |
| 20260507133716 | 51 | 314 | 1.0 | 11.0 | 0.00 | 0.00 | 0.00 | 67 | 1017.0 |
| 20260507133229 | 51 | 311 | 5.0 | 11.0 | 0.00 | 0.00 | 0.00 | 64 | 1017.0 |
| 20260507132741 | 50 | 3 | 3.0 | 13.0 | 0.00 | 0.00 | 0.00 | 68 | 1017.0 |
| 20260507132213 | 50 | 352 | 6.0 | 13.0 | 0.00 | 0.00 | 0.00 | 64 | 1017.1 |
| 20260507131725 | 50 | 333 | 6.0 | 8.0 | 0.00 | 0.00 | 0.00 | 67 | 1017.1 |
| 20260507131238 | 50 | 5 | 3.0 | 6.0 | 0.00 | 0.00 | 0.00 | 70 | 1017.1 |
| 20260507130730 | 50 | 309 | 3.0 | 6.0 | 0.00 | 0.00 | 0.00 | 72 | 1017.1 |
| 20260507130222 | 49 | 312 | 2.0 | 7.0 | 0.00 | 0.00 | 0.00 | 76 | 1017.0 |
| 20260507125728 | 48 | 321 | 4.0 | 6.0 | 0.00 | 0.00 | 0.00 | 76 | 1017.1 |
| 20260507125225 | 48 | 338 | 3.0 | 7.0 | 0.00 | 0.00 | 0.00 | 78 | 1017.0 |
| 20260507124718 | 47 | 345 | 4.0 | 7.0 | 0.00 | 0.00 | 0.00 | 79 | 1017.1 |
| 20260507124226 | 47 | 357 | 4.0 | 6.0 | 0.00 | 0.00 | 0.00 | 79 | 1017.1 |
| 20260507123719 | 47 | 338 | 4.0 | 6.0 | 0.00 | 0.00 | 0.00 | 80 | 1017.1 |
| 20260507123231 | 46 | 4 | 3.0 | 5.0 | 0.00 | 0.00 | 0.00 | 81 | 1017.3 |
| 20260507122724 | 46 | 11 | 3.0 | 4.0 | 0.00 | 0.00 | 0.00 | 82 | 1017.3 |
| 20260507122236 | 46 | 333 | 3.0 | 4.0 | 0.00 | 0.00 | 0.00 | 82 | 1017.4 |
| 20260507121749 | 46 | 352 | 3.0 | 5.0 | 0.00 | 0.00 | 0.00 | 82 | 1017.4 |
| 20260507121219 | 46 | 345 | 3.0 | 5.0 | 0.00 | 0.00 | 0.00 | 83 | 1017.4 |
| 20260507120752 | 45 | 349 | 2.0 | 3.0 | 0.00 | 0.00 | 0.00 | 84 | 1017.4 |
| 20260507120227 | 45 | 359 | 1.0 | 3.0 | 0.00 | 0.00 | 0.00 | 84 | 1017.4 |
| 20260507115714 | 45 | 360 | 2.0 | 4.0 | 0.00 | 0.00 | 0.00 | 84 | 1017.4 |
| 20260507115226 | 45 | 356 | 2.0 | 4.0 | 0.00 | 0.00 | 0.00 | 85 | 1017.3 |
| 20260507114718 | 44 | 337 | 2.0 | 3.0 | 0.00 | 0.00 | 0.00 | 86 | 1017.3 |
| 20260507114231 | 44 | 329 | 1.0 | 3.0 | 0.00 | 0.00 | 0.00 | 86 | 1017.4 |
| 20260507113744 | 44 | 298 | 1.0 | 4.0 | 0.00 | 0.00 | 0.00 | 86 | 1017.2 |
| 20260507113216 | 44 | 307 | 1.0 | 4.0 | 0.00 | 0.00 | 0.00 | 87 | 1017.3 |
| 20260507112749 | 43 | 326 | 1.0 | 2.0 | 0.00 | 0.00 | 0.00 | 87 | 1017.3 |
| 20260507112240 | 43 | 303 | 1.0 | 2.0 | 0.00 | 0.00 | 0.00 | 88 | 1017.2 |
| 20260507111731 | 43 | 323 | 0.0 | 2.0 | 0.00 | 0.00 | 0.00 | 88 | 1017.1 |
| 20260507111229 | 43 | 317 | 0.0 | 3.0 | 0.00 | 0.00 | 0.00 | 88 | 1017.0 |
| 20260507110722 | 42 | 307 | 0.0 | 4.0 | 0.00 | 0.00 | 0.00 | 89 | 1016.9 |
| 20260507110214 | 42 | 321 | 1.0 | 4.0 | 0.00 | 0.00 | 0.00 | 89 | 1016.8 |
| 20260507105721 | 42 | 324 | 1.0 | 3.0 | 0.00 | 0.00 | 0.00 | 90 | 1016.7 |
| 20260507105229 | 41 | 328 | 0.0 | 3.0 | 0.00 | 0.00 | 0.00 | 91 | 1016.6 |
| 20260507104721 | 41 | 323 | 0.0 | 2.0 | 0.00 | 0.00 | 0.00 | 91 | 1016.6 |
| 20260507104235 | 41 | 323 | 0.0 | 2.0 | 0.00 | 0.00 | 0.00 | 91 | 1016.5 |
| 20260507103727 | 41 | 329 | 1.0 | 2.0 | 0.00 | 0.00 | 0.00 | 91 | 1016.5 |
| 20260507103220 | 41 | 331 | 0.0 | 1.0 | 0.00 | 0.00 | 0.00 | 92 | 1016.6 |
| 20260507102718 | 41 | 331 | 0.0 | 1.0 | 0.00 | 0.00 | 0.00 | 92 | 1016.5 |
| 20260507102231 | 41 | 331 | 0.0 | 1.0 | 0.00 | 0.00 | 0.00 | 92 | 1016.5 |
| 20260507101725 | 41 | 331 | 0.0 | 1.0 | 0.00 | 0.00 | 0.00 | 92 | 1016.5 |
| 20260507101238 | 41 | 331 | 0.0 | 2.0 | 0.00 | 0.00 | 0.00 | 92 | 1016.5 |
| 20260507100751 | 42 | 331 | 1.0 | 3.0 | 0.00 | 0.00 | 0.00 | 92 | 1016.4 |
| 20260507100223 | 42 | 297 | 0.0 | 2.0 | 0.00 | 0.00 | 0.00 | 92 | 1016.5 |
| 20260507095751 | 42 | 318 | 0.0 | 2.0 | 0.00 | 0.00 | 0.00 | 92 | 1016.5 |
| 20260507095223 | 42 | 318 | 0.0 | 2.0 | 0.00 | 0.00 | 0.00 | 92 | 1016.5 |
| 20260507094737 | 42 | 311 | 0.0 | 2.0 | 0.00 | 0.00 | 0.00 | 92 | 1016.6 |
| 20260507094230 | 42 | 313 | 0.0 | 2.0 | 0.00 | 0.00 | 0.00 | 93 | 1016.6 |
| 20260507093727 | 42 | 320 | 0.0 | 1.0 | 0.00 | 0.00 | 0.00 | 93 | 1016.6 |
| 20260507093220 | 42 | 320 | 0.0 | 1.0 | 0.00 | 0.00 | 0.00 | 93 | 1016.5 |
| 20260507092714 | 43 | 320 | 0.0 | 2.0 | 0.00 | 0.00 | 0.00 | 93 | 1016.4 |
| 20260507092227 | 43 | 320 | 0.0 | 2.0 | 0.00 | 0.00 | 0.00 | 94 | 1016.4 |
| 20260507091721 | 43 | 323 | 0.0 | 2.0 | 0.00 | 0.00 | 0.00 | 94 | 1016.4 |
| 20260507091215 | 43 | 324 | 0.0 | 0.0 | 0.00 | 0.00 | 0.00 | 93 | 1016.4 |
| 20260507090729 | 43 | 324 | 0.0 | 0.0 | 0.00 | 0.00 | 0.00 | 94 | 1016.3 |
| 20260507090222 | 43 | 324 | 0.0 | 0.0 | 0.00 | 0.00 | 0.00 | 94 | 1016.2 |
| 20260507085749 | 43 | 324 | 0.0 | 0.0 | 0.00 | 0.03 | 0.00 | 93 | 1016.2 |
| 20260507085224 | 43 | 324 | 0.0 | 0.0 | 0.00 | 0.03 | 0.00 | 93 | 1016.3 |
| 20260507084718 | 43 | 324 | 0.0 | 0.0 | 0.00 | 0.03 | 0.00 | 93 | 1016.2 |
| 20260507084231 | 43 | 324 | 0.0 | 0.0 | 0.00 | 0.03 | 0.00 | 93 | 1016.2 |
| 20260507083725 | 43 | 325 | 0.0 | 0.0 | 0.00 | 0.03 | 0.00 | 92 | 1016.1 |
| 20260507083218 | 43 | 324 | 0.0 | 0.0 | 0.00 | 0.03 | 0.00 | 92 | 1016.0 |
| 20260507082732 | 44 | 324 | 0.0 | 0.0 | 0.00 | 0.03 | 0.00 | 92 | 1015.9 |
| 20260507082226 | 44 | 325 | 0.0 | 0.0 | 0.00 | 0.03 | 0.00 | 91 | 1016.0 |
| 20260507081723 | 44 | 325 | 0.0 | 0.0 | 0.00 | 0.03 | 0.00 | 91 | 1015.8 |
| 20260507081217 | 44 | 325 | 0.0 | 0.0 | 0.00 | 0.03 | 0.00 | 90 | 1015.9 |
| 20260507080731 | 44 | 325 | 0.0 | 0.0 | 0.00 | 0.03 | 0.00 | 90 | 1015.8 |
| 20260507080225 | 45 | 324 | 0.0 | 0.0 | 0.00 | 0.03 | 0.00 | 90 | 1015.9 |
| 20260507075731 | 44 | 325 | 0.0 | 0.0 | 0.00 | 0.08 | 0.00 | 90 | 1015.8 |
| 20260507075225 | 44 | 325 | 0.0 | 0.0 | 0.00 | 0.08 | 0.00 | 90 | 1015.8 |
| 20260507074718 | 45 | 325 | 0.0 | 2.0 | 0.00 | 0.08 | 0.00 | 90 | 1015.8 |
| 20260507074232 | 45 | 324 | 0.0 | 2.0 | 0.00 | 0.08 | 0.00 | 91 | 1015.9 |
| 20260507073729 | 45 | 319 | 0.0 | 1.0 | 0.00 | 0.08 | 0.00 | 91 | 1015.8 |
| 20260507073224 | 45 | 319 | 0.0 | 1.0 | 0.00 | 0.08 | 0.00 | 90 | 1015.8 |
| 20260507072737 | 45 | 309 | 0.0 | 1.0 | 0.00 | 0.08 | 0.00 | 90 | 1015.8 |
| 20260507072230 | 45 | 307 | 0.0 | 1.0 | 0.00 | 0.08 | 0.00 | 89 | 1015.9 |
| 20260507071724 | 46 | 295 | 0.0 | 1.0 | 0.00 | 0.08 | 0.00 | 89 | 1015.9 |
| 20260507071217 | 46 | 300 | 0.0 | 1.0 | 0.00 | 0.08 | 0.00 | 89 | 1016.2 |
| 20260507070731 | 46 | 300 | 0.0 | 1.0 | 0.00 | 0.08 | 0.00 | 89 | 1016.0 |
| 20260507070225 | 46 | 298 | 0.0 | 1.0 | 0.00 | 0.08 | 0.00 | 89 | 1015.9 |
| 20260507065752 | 46 | 278 | 0.0 | 1.0 | 0.00 | 0.19 | 0.00 | 88 | 1015.8 |
| 20260507065228 | 46 | 278 | 0.0 | 1.0 | 0.00 | 0.19 | 0.00 | 89 | 1016.1 |
| 20260507064741 | 46 | 278 | 0.0 | 1.0 | 0.00 | 0.19 | 0.00 | 89 | 1016.0 |
| 20260507064214 | 46 | 278 | 0.0 | 1.0 | 0.00 | 0.19 | 0.00 | 90 | 1016.0 |
| 20260507063728 | 46 | 278 | 0.0 | 1.0 | 0.00 | 0.19 | 0.00 | 89 | 1016.0 |
| 20260507063221 | 46 | 278 | 0.0 | 1.0 | 0.00 | 0.19 | 0.00 | 88 | 1016.0 |
| 20260507062715 | 46 | 278 | 0.0 | 1.0 | 0.00 | 0.19 | 0.00 | 88 | 1016.1 |
| 20260507062229 | 46 | 278 | 0.0 | 1.0 | 0.00 | 0.19 | 0.00 | 88 | 1016.2 |
| 20260507061722 | 46 | 328 | 0.0 | 0.0 | 0.00 | 0.19 | 0.00 | 89 | 1016.1 |
| 20260507061220 | 45 | 328 | 0.0 | 0.0 | 0.00 | 0.19 | 0.00 | 89 | 1016.1 |
| 20260507060734 | 45 | 328 | 0.0 | 0.0 | 0.00 | 0.19 | 0.00 | 88 | 1016.1 |
| 20260507060226 | 46 | 328 | 0.0 | 0.0 | 0.00 | 0.19 | 0.00 | 87 | 1016.0 |
| 20260507055713 | 46 | 328 | 0.0 | 0.0 | 0.00 | 0.28 | 0.00 | 85 | 1015.8 |
| 20260507055247 | 47 | 328 | 0.0 | 0.0 | 0.00 | 0.28 | 0.00 | 84 | 1016.0 |
| 20260507054719 | 47 | 328 | 0.0 | 0.0 | 0.00 | 0.28 | 0.00 | 84 | 1016.1 |
| 20260507054213 | 47 | 328 | 0.0 | 0.0 | 0.00 | 0.28 | 0.00 | 83 | 1016.1 |
| 20260507053727 | 48 | 328 | 0.0 | 0.0 | 0.00 | 0.28 | 0.00 | 82 | 1016.1 |
| 20260507053220 | 48 | 328 | 0.0 | 0.0 | 0.00 | 0.28 | 0.00 | 81 | 1016.2 |
| 20260507052717 | 48 | 328 | 0.0 | 0.0 | 0.00 | 0.28 | 0.00 | 80 | 1016.2 |
| 20260507052250 | 48 | 328 | 0.0 | 0.0 | 0.00 | 0.28 | 0.00 | 80 | 1016.2 |
| 20260507051723 | 48 | 328 | 0.0 | 0.0 | 0.00 | 0.28 | 0.00 | 81 | 1016.2 |
| 20260507051217 | 48 | 328 | 0.0 | 0.0 | 0.00 | 0.28 | 0.00 | 81 | 1016.3 |
| 20260507050730 | 48 | 328 | 0.0 | 0.0 | 0.00 | 0.28 | 0.00 | 81 | 1016.2 |
| 20260507050224 | 48 | 328 | 0.0 | 0.0 | 0.00 | 0.28 | 0.00 | 83 | 1016.0 |
| 20260507045752 | 48 | 328 | 0.0 | 0.0 | 0.00 | 0.46 | 0.00 | 84 | 1016.0 |
| 20260507045224 | 48 | 328 | 0.0 | 0.0 | 0.00 | 0.46 | 0.00 | 84 | 1016.0 |
| 20260507044717 | 48 | 328 | 0.0 | 0.0 | 0.00 | 0.46 | 0.00 | 82 | 1016.2 |
| 20260507044215 | 49 | 328 | 0.0 | 0.0 | 0.00 | 0.46 | 0.00 | 82 | 1016.3 |
| 20260507043728 | 49 | 328 | 0.0 | 0.0 | 0.00 | 0.46 | 0.00 | 81 | 1016.3 |
| 20260507043221 | 48 | 328 | 0.0 | 0.0 | 0.00 | 0.46 | 0.00 | 81 | 1016.2 |
| 20260507042715 | 48 | 328 | 0.0 | 1.0 | 0.00 | 0.46 | 0.00 | 82 | 1016.2 |
| 20260507042249 | 48 | 328 | 0.0 | 0.0 | 0.00 | 0.46 | 0.00 | 82 | 1016.4 |
| 20260507041721 | 48 | 328 | 0.0 | 1.0 | 0.00 | 0.46 | 0.00 | 82 | 1016.5 |
| 20260507041215 | 48 | 328 | 0.0 | 0.0 | 0.00 | 0.46 | 0.00 | 81 | 1016.3 |
| 20260507040729 | 48 | 328 | 0.0 | 0.0 | 0.00 | 0.46 | 0.00 | 81 | 1016.4 |
| 20260507040223 | 49 | 328 | 0.0 | 0.0 | 0.00 | 0.46 | 0.00 | 81 | 1016.5 |
| 20260507035730 | 49 | 328 | 0.0 | 0.0 | 0.00 | 0.47 | 0.46 | 80 | 1016.5 |
| 20260507035223 | 49 | 328 | 0.0 | 0.0 | 0.00 | 0.47 | 0.46 | 80 | 1016.4 |
| 20260507034717 | 49 | 328 | 0.0 | 0.0 | 0.00 | 0.47 | 0.46 | 79 | 1016.2 |
| 20260507034230 | 49 | 328 | 0.0 | 0.0 | 0.00 | 0.47 | 0.46 | 79 | 1016.3 |
| 20260507033723 | 50 | 328 | 0.0 | 0.0 | 0.00 | 0.47 | 0.46 | 79 | 1016.3 |
| 20260507033217 | 50 | 328 | 0.0 | 1.0 | 0.00 | 0.47 | 0.46 | 79 | 1016.2 |
| 20260507032751 | 50 | 328 | 0.0 | 1.0 | 0.00 | 0.47 | 0.46 | 79 | 1016.0 |
| 20260507032220 | 50 | 328 | 0.0 | 1.0 | 0.00 | 0.47 | 0.46 | 79 | 1016.0 |
| 20260507031718 | 50 | 328 | 0.0 | 1.0 | 0.00 | 0.47 | 0.46 | 79 | 1016.1 |
| 20260507031231 | 50 | 328 | 0.0 | 0.0 | 0.00 | 0.47 | 0.46 | 80 | 1016.1 |
| 20260507030725 | 51 | 328 | 0.0 | 0.0 | 0.00 | 0.47 | 0.46 | 79 | 1016.1 |
| 20260507030218 | 51 | 328 | 0.0 | 1.0 | 0.00 | 0.47 | 0.46 | 78 | 1016.2 |
| 20260507025726 | 51 | 328 | 0.0 | 1.0 | 0.00 | 0.47 | 0.46 | 78 | 1016.2 |
| 20260507025219 | 51 | 328 | 0.0 | 1.0 | 0.00 | 0.47 | 0.46 | 77 | 1016.0 |
| 20260507024753 | 52 | 328 | 0.0 | 1.0 | 0.00 | 0.47 | 0.46 | 76 | 1016.1 |
| 20260507024225 | 52 | 328 | 0.0 | 1.0 | 0.00 | 0.47 | 0.46 | 75 | 1016.1 |
| 20260507023719 | 52 | 328 | 0.0 | 0.0 | 0.00 | 0.47 | 0.46 | 75 | 1016.2 |
| 20260507023216 | 52 | 328 | 0.0 | 0.0 | 0.00 | 0.47 | 0.46 | 75 | 1016.0 |
| 20260507022730 | 52 | 328 | 0.0 | 0.0 | 0.00 | 0.47 | 0.46 | 74 | 1015.9 |
| 20260507022244 | 52 | 328 | 0.0 | 0.0 | 0.00 | 0.47 | 0.46 | 74 | 1015.8 |
| 20260507021737 | 53 | 328 | 0.0 | 0.0 | 0.00 | 0.47 | 0.46 | 73 | 1015.8 |
| 20260507021229 | 53 | 328 | 0.0 | 1.0 | 0.00 | 0.47 | 0.46 | 72 | 1015.8 |
| 20260507020722 | 53 | 328 | 0.0 | 1.0 | 0.00 | 0.47 | 0.46 | 72 | 1015.8 |
| 20260507020216 | 53 | 328 | 0.0 | 0.0 | 0.00 | 0.47 | 0.46 | 72 | 1015.8 |
| 20260507015723 | 53 | 328 | 0.0 | 1.0 | 0.00 | 0.48 | 0.46 | 71 | 1015.6 |
| 20260507015216 | 53 | 328 | 0.0 | 1.0 | 0.00 | 0.48 | 0.46 | 70 | 1015.7 |
| 20260507014714 | 53 | 328 | 0.0 | 1.0 | 0.00 | 0.48 | 0.46 | 70 | 1015.7 |
| 20260507014228 | 53 | 329 | 0.0 | 2.0 | 0.00 | 0.48 | 0.46 | 70 | 1015.6 |
| 20260507013741 | 54 | 329 | 0.0 | 2.0 | 0.00 | 0.48 | 0.46 | 69 | 1015.7 |
| 20260507013214 | 54 | 329 | 0.0 | 3.0 | 0.00 | 0.48 | 0.46 | 70 | 1015.7 |
| 20260507012727 | 54 | 330 | 1.0 | 4.0 | 0.00 | 0.48 | 0.46 | 70 | 1015.6 |
| 20260507012220 | 54 | 316 | 0.0 | 2.0 | 0.00 | 0.48 | 0.46 | 69 | 1015.6 |
| 20260507011713 | 54 | 334 | 0.0 | 2.0 | 0.00 | 0.48 | 0.46 | 70 | 1015.5 |
| 20260507011225 | 54 | 344 | 0.0 | 2.0 | 0.00 | 0.48 | 0.46 | 69 | 1015.5 |
| 20260507010721 | 54 | 316 | 0.0 | 2.0 | 0.00 | 0.48 | 0.46 | 69 | 1015.6 |
| 20260507010214 | 54 | 330 | 0.0 | 2.0 | 0.00 | 0.48 | 0.46 | 69 | 1015.4 |
| 20260507005718 | 54 | 331 | 0.0 | 2.0 | 0.00 | 0.48 | 0.46 | 69 | 1015.3 |
| 20260507005251 | 55 | 331 | 1.0 | 2.0 | 0.00 | 0.48 | 0.46 | 69 | 1015.2 |
| 20260507004722 | 55 | 318 | 0.0 | 2.0 | 0.00 | 0.48 | 0.46 | 69 | 1015.3 |
| 20260507004215 | 55 | 323 | 0.0 | 2.0 | 0.00 | 0.48 | 0.46 | 69 | 1015.3 |
| 20260507003729 | 55 | 320 | 0.0 | 2.0 | 0.00 | 0.48 | 0.46 | 69 | 1015.3 |
| 20260507003221 | 55 | 320 | 1.0 | 5.0 | 0.00 | 0.48 | 0.46 | 68 | 1015.3 |
| 20260507002713 | 56 | 328 | 2.0 | 5.0 | 0.00 | 0.48 | 0.46 | 68 | 1015.1 |
| 20260507002230 | 56 | 342 | 2.0 | 3.0 | 0.00 | 0.48 | 0.46 | 68 | 1015.2 |
| 20260507001722 | 56 | 290 | 1.0 | 3.0 | 0.00 | 0.48 | 0.46 | 67 | 1015.1 |
| 20260507001215 | 56 | 324 | 0.0 | 3.0 | 0.00 | 0.48 | 0.46 | 66 | 1015.1 |
| 20260507000730 | 56 | 272 | 1.0 | 3.0 | 0.00 | 0.48 | 0.46 | 67 | 1014.9 |
| 20260507000222 | 57 | 327 | 1.0 | 4.0 | 0.00 | 0.48 | 0.46 | 67 | 1014.9 |
| 20260506235730 | 56 | 333 | 1.0 | 5.0 | 0.00 | 0.54 | 0.46 | 66 | 1015.1 |
| 20260506235222 | 56 | 313 | 2.0 | 5.0 | 0.00 | 0.54 | 0.46 | 65 | 1015.0 |
| 20260506234716 | 56 | 321 | 1.0 | 4.0 | 0.00 | 0.54 | 0.46 | 66 | 1015.0 |
| 20260506234214 | 57 | 333 | 1.0 | 4.0 | 0.00 | 0.54 | 0.46 | 67 | 1014.8 |
| 20260506233728 | 57 | 335 | 2.0 | 4.0 | 0.00 | 0.54 | 0.46 | 66 | 1014.8 |
| 20260506233221 | 57 | 326 | 1.0 | 5.0 | 0.00 | 0.54 | 0.46 | 66 | 1014.9 |
| 20260506232715 | 57 | 331 | 1.0 | 6.0 | 0.00 | 0.54 | 0.46 | 64 | 1014.8 |
| 20260506232228 | 57 | 314 | 2.0 | 7.0 | 0.00 | 0.54 | 0.46 | 65 | 1014.7 |
| 20260506231722 | 57 | 333 | 4.0 | 8.0 | 0.00 | 0.54 | 0.46 | 65 | 1014.6 |
| 20260506231215 | 57 | 267 | 3.0 | 8.0 | 0.00 | 0.54 | 0.46 | 64 | 1014.5 |
| 20260506230713 | 57 | 317 | 3.0 | 7.0 | 0.00 | 0.54 | 0.46 | 64 | 1014.5 |
| 20260506230227 | 57 | 340 | 2.0 | 6.0 | 0.00 | 0.54 | 0.46 | 63 | 1014.3 |
| 20260506225732 | 58 | 345 | 1.0 | 5.0 | 0.00 | 0.54 | 0.46 | 66 | 1014.2 |
| 20260506225225 | 58 | 323 | 2.0 | 6.0 | 0.00 | 0.54 | 0.46 | 64 | 1014.2 |
| 20260506224719 | 58 | 11 | 3.0 | 8.0 | 0.00 | 0.54 | 0.46 | 64 | 1014.2 |
| 20260506224213 | 58 | 322 | 3.0 | 9.0 | 0.00 | 0.54 | 0.46 | 63 | 1014.2 |
| 20260506223727 | 58 | 7 | 5.0 | 9.0 | 0.00 | 0.54 | 0.46 | 62 | 1014.2 |
| 20260506223241 | 58 | 337 | 4.0 | 10.0 | 0.00 | 0.54 | 0.46 | 63 | 1014.3 |
| 20260506222753 | 58 | 353 | 4.0 | 10.0 | 0.00 | 0.54 | 0.46 | 63 | 1014.3 |
| 20260506222226 | 58 | 321 | 7.0 | 10.0 | 0.00 | 0.54 | 0.46 | 62 | 1014.2 |
| 20260506221723 | 59 | 338 | 5.0 | 8.0 | 0.00 | 0.54 | 0.46 | 64 | 1014.2 |
| 20260506221236 | 59 | 345 | 3.0 | 7.0 | 0.00 | 0.54 | 0.46 | 65 | 1014.2 |
| 20260506220730 | 59 | 321 | 4.0 | 13.0 | 0.00 | 0.54 | 0.46 | 64 | 1014.2 |
| 20260506220223 | 59 | 318 | 6.0 | 13.0 | 0.00 | 0.54 | 0.46 | 63 | 1014.2 |
| 20260506215728 | 59 | 332 | 2.0 | 9.0 | 0.00 | 0.58 | 0.46 | 64 | 1014.3 |
| 20260506215221 | 59 | 341 | 4.0 | 9.0 | 0.00 | 0.58 | 0.46 | 61 | 1014.2 |
| 20260506214714 | 60 | 345 | 2.0 | 6.0 | 0.00 | 0.58 | 0.46 | 60 | 1014.4 |
| 20260506214227 | 60 | 334 | 3.0 | 6.0 | 0.00 | 0.58 | 0.46 | 61 | 1014.5 |
| 20260506213739 | 60 | 321 | 1.0 | 6.0 | 0.00 | 0.58 | 0.46 | 60 | 1014.5 |
| 20260506213214 | 60 | 316 | 2.0 | 6.0 | 0.00 | 0.58 | 0.46 | 59 | 1014.5 |
| 20260506212727 | 60 | 286 | 2.0 | 4.0 | 0.00 | 0.58 | 0.46 | 59 | 1014.4 |
| 20260506212219 | 60 | 273 | 1.0 | 3.0 | 0.00 | 0.58 | 0.46 | 58 | 1014.3 |
| 20260506211731 | 60 | 347 | 1.0 | 4.0 | 0.00 | 0.58 | 0.46 | 59 | 1014.2 |
| 20260506211224 | 60 | 274 | 1.0 | 5.0 | 0.00 | 0.58 | 0.46 | 59 | 1014.3 |
| 20260506210717 | 60 | 313 | 2.0 | 5.0 | 0.00 | 0.58 | 0.46 | 59 | 1014.3 |
| 20260506210230 | 60 | 304 | 2.0 | 6.0 | 0.00 | 0.58 | 0.46 | 59 | 1014.4 |
| 20260506205715 | 61 | 323 | 3.0 | 6.0 | 0.00 | 0.72 | 0.46 | 60 | 1014.2 |
| 20260506205232 | 61 | 341 | 1.0 | 6.0 | 0.00 | 0.72 | 0.46 | 62 | 1014.1 |
| 20260506204726 | 61 | 328 | 2.0 | 7.0 | 0.00 | 0.72 | 0.46 | 61 | 1014.2 |
| 20260506204219 | 60 | 344 | 2.0 | 7.0 | 0.00 | 0.72 | 0.46 | 61 | 1014.0 |
| 20260506203731 | 60 | 328 | 2.0 | 6.0 | 0.00 | 0.72 | 0.46 | 62 | 1014.1 |
| 20260506203224 | 61 | 1 | 3.0 | 6.0 | 0.00 | 0.72 | 0.46 | 63 | 1014.2 |
| 20260506202717 | 61 | 326 | 1.0 | 3.0 | 0.00 | 0.72 | 0.46 | 65 | 1014.1 |
| 20260506202230 | 60 | 309 | 1.0 | 4.0 | 0.00 | 0.72 | 0.46 | 62 | 1014.1 |
| 20260506201723 | 60 | 345 | 2.0 | 6.0 | 0.00 | 0.72 | 0.46 | 62 | 1014.3 |
| 20260506201220 | 60 | 342 | 1.0 | 7.0 | 0.00 | 0.72 | 0.46 | 64 | 1014.3 |
| 20260506200752 | 60 | 328 | 4.0 | 7.0 | 0.00 | 0.72 | 0.46 | 61 | 1014.2 |
| 20260506200223 | 61 | 333 | 1.0 | 6.0 | 0.00 | 0.72 | 0.46 | 61 | 1014.3 |
| 20260506195728 | 61 | 1 | 3.0 | 7.0 | 0.00 | 0.73 | 0.46 | 61 | 1014.1 |
| 20260506195221 | 61 | 325 | 3.0 | 7.0 | 0.00 | 0.73 | 0.46 | 58 | 1014.2 |
| 20260506194714 | 62 | 15 | 1.0 | 7.0 | 0.00 | 0.73 | 0.46 | 60 | 1014.0 |
| 20260506194227 | 62 | 255 | 3.0 | 7.0 | 0.00 | 0.73 | 0.46 | 58 | 1014.1 |
| 20260506193719 | 61 | 336 | 1.0 | 4.0 | 0.00 | 0.73 | 0.46 | 61 | 1014.1 |
| 20260506193252 | 61 | 325 | 1.0 | 6.0 | 0.00 | 0.73 | 0.46 | 58 | 1014.2 |
| 20260506192728 | 61 | 265 | 3.0 | 9.0 | 0.00 | 0.73 | 0.46 | 58 | 1014.3 |
| 20260506192220 | 61 | 284 | 3.0 | 9.0 | 0.00 | 0.73 | 0.46 | 60 | 1014.4 |
| 20260506191733 | 61 | 209 | 2.0 | 6.0 | 0.00 | 0.73 | 0.46 | 58 | 1014.3 |
| 20260506191246 | 61 | 56 | 2.0 | 7.0 | 0.00 | 0.73 | 0.46 | 63 | 1014.2 |
| 20260506190717 | 61 | 26 | 2.0 | 7.0 | 0.00 | 0.73 | 0.46 | 65 | 1014.1 |
| 20260506190230 | 61 | 179 | 2.0 | 7.0 | 0.00 | 0.73 | 0.46 | 62 | 1014.2 |
| 20260506185716 | 61 | 63 | 3.0 | 8.0 | 0.00 | 0.73 | 0.46 | 64 | 1014.1 |
| 20260506185231 | 61 | 328 | 3.0 | 12.0 | 0.00 | 0.73 | 0.46 | 63 | 1014.1 |
| 20260506184722 | 60 | 5 | 3.0 | 12.0 | 0.00 | 0.73 | 0.46 | 61 | 1014.2 |
| 20260506184218 | 60 | 323 | 3.0 | 10.0 | 0.00 | 0.73 | 0.46 | 62 | 1014.1 |
| 20260506183751 | 60 | 293 | 4.0 | 13.0 | 0.00 | 0.73 | 0.46 | 65 | 1014.2 |
| 20260506183221 | 60 | 340 | 7.0 | 13.0 | 0.00 | 0.73 | 0.46 | 62 | 1014.0 |
| 20260506182714 | 60 | 323 | 5.0 | 15.0 | 0.00 | 0.73 | 0.46 | 66 | 1013.9 |
| 20260506182227 | 60 | 3 | 9.0 | 15.0 | 0.00 | 0.73 | 0.46 | 62 | 1013.9 |
| 20260506181719 | 60 | 70 | 4.0 | 12.0 | 0.00 | 0.73 | 0.46 | 62 | 1013.9 |
| 20260506181232 | 60 | 335 | 4.0 | 10.0 | 0.00 | 0.73 | 0.46 | 64 | 1013.9 |
| 20260506180725 | 60 | 13 | 5.0 | 10.0 | 0.00 | 0.73 | 0.46 | 64 | 1013.9 |
| 20260506180222 | 60 | 337 | 5.0 | 9.0 | 0.00 | 0.73 | 0.46 | 64 | 1013.8 |
| 20260506175724 | 60 | 348 | 4.0 | 10.0 | 0.00 | 0.73 | 0.46 | 65 | 1013.9 |
| 20260506175237 | 60 | 347 | 1.0 | 8.0 | 0.00 | 0.73 | 0.46 | 66 | 1013.8 |
| 20260506174749 | 60 | 355 | 5.0 | 8.0 | 0.00 | 0.73 | 0.46 | 64 | 1014.0 |
| 20260506174220 | 60 | 335 | 2.0 | 12.0 | 0.00 | 0.73 | 0.46 | 65 | 1013.9 |
| 20260506173733 | 60 | 27 | 6.0 | 12.0 | 0.00 | 0.73 | 0.46 | 63 | 1014.1 |
| 20260506173225 | 60 | 218 | 3.0 | 7.0 | 0.00 | 0.73 | 0.46 | 67 | 1014.3 |
| 20260506172718 | 59 | 323 | 3.0 | 9.0 | 0.00 | 0.73 | 0.46 | 67 | 1014.2 |
| 20260506172231 | 59 | 292 | 5.0 | 13.0 | 0.00 | 0.73 | 0.46 | 66 | 1014.2 |
| 20260506171723 | 60 | 343 | 3.0 | 8.0 | 0.00 | 0.73 | 0.46 | 67 | 1014.2 |
| 20260506171220 | 59 | 302 | 4.0 | 10.0 | 0.00 | 0.73 | 0.46 | 70 | 1014.3 |
| 20260506170753 | 59 | 340 | 4.0 | 8.0 | 0.00 | 0.73 | 0.46 | 70 | 1014.4 |
| 20260506170225 | 59 | 49 | 4.0 | 8.0 | 0.00 | 0.73 | 0.46 | 69 | 1014.4 |
| 20260506165729 | 58 | 311 | 3.0 | 11.0 | 0.00 | 0.73 | 0.46 | 71 | 1014.5 |
| 20260506165222 | 58 | 334 | 3.0 | 11.0 | 0.00 | 0.73 | 0.46 | 71 | 1014.5 |
| 20260506164735 | 58 | 319 | 2.0 | 8.0 | 0.00 | 0.73 | 0.46 | 71 | 1014.5 |
| 20260506164227 | 58 | 98 | 3.0 | 10.0 | 0.00 | 0.73 | 0.46 | 71 | 1014.7 |
| 20260506163719 | 57 | 8 | 4.0 | 11.0 | 0.00 | 0.73 | 0.46 | 70 | 1014.6 |
| 20260506163232 | 57 | 11 | 4.0 | 11.0 | 0.00 | 0.73 | 0.46 | 71 | 1014.7 |
| 20260506162729 | 57 | 311 | 3.0 | 12.0 | 0.00 | 0.73 | 0.46 | 74 | 1014.7 |
| 20260506162221 | 57 | 335 | 5.0 | 12.0 | 0.00 | 0.73 | 0.46 | 71 | 1014.6 |
| 20260506161714 | 57 | 7 | 7.0 | 12.0 | 0.00 | 0.73 | 0.46 | 70 | 1014.6 |
| 20260506161226 | 57 | 55 | 4.0 | 12.0 | 0.00 | 0.73 | 0.46 | 73 | 1014.5 |
| 20260506160719 | 56 | 15 | 4.0 | 10.0 | 0.00 | 0.73 | 0.46 | 74 | 1014.4 |
| 20260506160252 | 56 | 328 | 5.0 | 10.0 | 0.00 | 0.73 | 0.46 | 78 | 1014.4 |